Total_Precipitation_Accumulation
0.24 0.28 0.24 0.18 0.16 0.13 0.12 0.12 0.10 0.08 0.07 0.08 0.07 0.04 0.02 0.02 0.03 0.03 0.01 0.01 0.01 0.00 0.00 0.00 0.00 0.00 0.01 0.04 0.06 0.06 0.05 0.06 0.07 0.09 0.13 0.16 0.13 0.12 0.12 0.09 0.08 0.09 0.10 0.10
0.27 0.21 0.10 0.08 0.11 0.14 0.14 0.13 0.11 0.08 0.06 0.09 0.08 0.04 0.02 0.02 0.03 0.02 0.02 0.01 0.01 0.00 0.00 0.00 0.01 0.01 0.01 0.02 0.05 0.07 0.06 0.05 0.06 0.07 0.09 0.12 0.11 0.10 0.11 0.10 0.08 0.08 0.08 0.09
0.24 0.12 0.06 0.10 0.15 0.19 0.19 0.15 0.11 0.10 0.08 0.09 0.09 0.06 0.02 0.01 0.02 0.01 0.01 0.01 0.01 0.01 0.00 0.00 0.01 0.01 0.01 0.01 0.03 0.06 0.06 0.05 0.05 0.06 0.09 0.13 0.15 0.13 0.12 0.12 0.10 0.08 0.08 0.08
0.20 0.10 0.09 0.12 0.15 0.16 0.16 0.10 0.09 0.11 0.17 0.19 0.14 0.12 0.03 0.01 0.02 0.02 0.01 0.01 0.00 0.00 0.00 0.01 0.01 0.01 0.01 0.01 0.02 0.05 0.07 0.07 0.06 0.07 0.09 0.11 0.14 0.12 0.10 0.09 0.09 0.08 0.07 0.07
0.22 0.10 0.12 0.12 0.09 0.10 0.12 0.09 0.11 0.13 0.20 0.23 0.16 0.16 0.05 0.01 0.02 0.01 0.01 0.00 0.00 0.00 0.01 0.01 0.01 0.01 0.01 0.01 0.01 0.02 0.07 0.08 0.07 0.07 0.08 0.10 0.12 0.11 0.10 0.09 0.09 0.09 0.08 0.06
0.15 0.10 0.12 0.10 0.07 0.09 0.13 0.17 0.22 0.23 0.33 0.39 0.14 0.11 0.05 0.03 0.02 0.01 0.01 0.00 0.00 0.01 0.01 0.02 0.02 0.02 0.01 0.01 0.01 0.02 0.05 0.08 0.08 0.09 0.09 0.10 0.11 0.11 0.12 0.11 0.09 0.08 0.09 0.07
0.20 0.13 0.10 0.10 0.14 0.15 0.23 0.38 0.58 0.57 0.54 0.31 0.05 0.06 0.05 0.02 0.02 0.01 0.01 0.00 0.00 0.01 0.01 0.01 0.02 0.03 0.03 0.02 0.02 0.02 0.04 0.07 0.09 0.10 0.11 0.10 0.11 0.11 0.11 0.12 0.10 0.07 0.07 0.08
0.25 0.16 0.09 0.08 0.12 0.18 0.19 0.30 0.49 0.48 0.28 0.09 0.03 0.04 0.03 0.02 0.01 0.01 0.00 0.00 0.01 0.01 0.01 0.00 0.00 0.01 0.01 0.02 0.02 0.02 0.03 0.05 0.08 0.10 0.11 0.11 0.11 0.11 0.10 0.11 0.12 0.08 0.07 0.07
0.29 0.17 0.06 0.03 0.04 0.11 0.22 0.23 0.22 0.35 0.27 0.17 0.09 0.05 0.03 0.01 0.00 0.00 0.00 0.01 0.01 0.01 0.01 0.00 0.00 0.00 0.01 0.02 0.02 0.03 0.03 0.04 0.06 0.09 0.13 0.13 0.12 0.12 0.10 0.09 0.11 0.10 0.08 0.08
0.33 0.25 0.10 0.07 0.09 0.12 0.16 0.24 0.34 0.50 0.47 0.26 0.10 0.06 0.04 0.01 0.01 0.00 0.01 0.01 0.02 0.02 0.01 0.01 0.01 0.01 0.01 0.01 0.02 0.03 0.04 0.05 0.06 0.07 0.11 0.15 0.14 0.14 0.13 0.11 0.12 0.12 0.11 0.13
0.31 0.35 0.19 0.15 0.17 0.15 0.15 0.24 0.40 0.50 0.40 0.27 0.15 0.07 0.06 0.03 0.02 0.01 0.01 0.02 0.03 0.03 0.03 0.02 0.01 0.01 0.02 0.02 0.02 0.02 0.04 0.06 0.08 0.08 0.09 0.13 0.19 0.19 0.18 0.18 0.18 0.16 0.16 0.17
0.32 0.43 0.30 0.16 0.11 0.12 0.18 0.20 0.28 0.44 0.38 0.23 0.18 0.08 0.04 0.03 0.02 0.01 0.01 0.01 0.02 0.03 0.04 0.03 0.03 0.03 0.03 0.03 0.03 0.04 0.05 0.07 0.09 0.09 0.10 0.12 0.17 0.23 0.26 0.28 0.27 0.26 0.24 0.22
0.48 0.63 0.53 0.33 0.24 0.22 0.24 0.24 0.25 0.33 0.37 0.30 0.24 0.09 0.02 0.01 0.02 0.02 0.01 0.01 0.01 0.03 0.04 0.04 0.03 0.04 0.05 0.05 0.05 0.07 0.08 0.09 0.10 0.10 0.11 0.14 0.18 0.24 0.31 0.35 0.38 0.37 0.34 0.32
0.66 0.71 0.56 0.40 0.27 0.25 0.26 0.22 0.23 0.34 0.43 0.28 0.14 0.06 0.02 0.02 0.03 0.03 0.02 0.02 0.01 0.02 0.03 0.04 0.04 0.03 0.04 0.06 0.07 0.09 0.11 0.12 0.14 0.17 0.18 0.22 0.28 0.32 0.36 0.39 0.39 0.39 0.40 0.41
0.67 0.65 0.38 0.21 0.13 0.13 0.17 0.15 0.16 0.21 0.23 0.20 0.10 0.06 0.04 0.03 0.04 0.04 0.04 0.03 0.03 0.03 0.03 0.05 0.05 0.04 0.05 0.06 0.08 0.13 0.16 0.20 0.24 0.31 0.32 0.31 0.32 0.35 0.34 0.34 0.34 0.36 0.40 0.43
0.62 0.59 0.35 0.23 0.14 0.14 0.15 0.11 0.10 0.10 0.10 0.08 0.06 0.05 0.04 0.03 0.02 0.02 0.03 0.04 0.04 0.04 0.05 0.06 0.06 0.07 0.07 0.09 0.14 0.21 0.27 0.30 0.33 0.38 0.39 0.35 0.31 0.32 0.36 0.36 0.34 0.35 0.36 0.35
0.57 0.61 0.56 0.34 0.16 0.25 0.27 0.11 0.07 0.08 0.06 0.06 0.06 0.05 0.04 0.03 0.02 0.02 0.02 0.04 0.05 0.05 0.06 0.08 0.09 0.11 0.13 0.17 0.22 0.27 0.31 0.31 0.33 0.37 0.40 0.38 0.33 0.32 0.34 0.35 0.31 0.30 0.28 0.27
0.40 0.48 0.68 0.51 0.35 0.46 0.20 0.05 0.05 0.06 0.06 0.06 0.05 0.04 0.04 0.03 0.02 0.02 0.03 0.05 0.07 0.09 0.11 0.13 0.15 0.16 0.18 0.23 0.27 0.31 0.31 0.32 0.32 0.32 0.32 0.32 0.25 0.22 0.24 0.27 0.25 0.23 0.22 0.23
0.21 0.38 0.69 0.65 0.51 0.29 0.08 0.03 0.04 0.07 0.09 0.07 0.06 0.04 0.03 0.03 0.03 0.04 0.06 0.07 0.08 0.09 0.10 0.10 0.11 0.13 0.17 0.21 0.24 0.25 0.25 0.24 0.23 0.22 0.20 0.21 0.17 0.13 0.15 0.18 0.18 0.17 0.17 0.17
0.16 0.31 0.67 0.69 0.57 0.28 0.08 0.03 0.03 0.08 0.11 0.08 0.07 0.06 0.06 0.09 0.21 0.12 0.11 0.08 0.06 0.05 0.05 0.05 0.06 0.07 0.10 0.12 0.13 0.14 0.15 0.14 0.14 0.13 0.12 0.16 0.13 0.09 0.09 0.11 0.11 0.12 0.13 0.15
0.27 0.46 0.63 0.58 0.51 0.21 0.06 0.03 0.05 0.15 0.17 0.12 0.11 0.10 0.14 0.20 0.26 0.16 0.10 0.08 0.06 0.05 0.04 0.03 0.04 0.07 0.09 0.11 0.12 0.12 0.10 0.08 0.07 0.08 0.09 0.14 0.14 0.08 0.06 0.08 0.09 0.11 0.13 0.16
0.27 0.39 0.41 0.41 0.51 0.22 0.05 0.06 0.11 0.16 0.13 0.12 0.13 0.15 0.20 0.15 0.08 0.06 0.07 0.07 0.05 0.03 0.03 0.04 0.05 0.08 0.12 0.14 0.11 0.08 0.06 0.04 0.04 0.07 0.09 0.12 0.15 0.10 0.07 0.08 0.10 0.11 0.13 0.17
0.19 0.25 0.27 0.27 0.21 0.07 0.06 0.08 0.09 0.11 0.13 0.16 0.25 0.25 0.23 0.19 0.12 0.10 0.08 0.06 0.04 0.03 0.04 0.05 0.07 0.12 0.15 0.12 0.08 0.05 0.04 0.03 0.03 0.06 0.09 0.10 0.13 0.12 0.11 0.11 0.12 0.12 0.13 0.18
0.11 0.13 0.20 0.19 0.10 0.06 0.05 0.05 0.05 0.08 0.13 0.17 0.20 0.22 0.24 0.25 0.18 0.13 0.10 0.07 0.05 0.05 0.07 0.08 0.09 0.13 0.15 0.11 0.06 0.05 0.04 0.04 0.04 0.06 0.09 0.11 0.12 0.14 0.12 0.11 0.12 0.13 0.15 0.28
0.09 0.10 0.13 0.11 0.07 0.07 0.06 0.05 0.06 0.09 0.08 0.07 0.09 0.13 0.21 0.27 0.20 0.12 0.09 0.09 0.09 0.09 0.09 0.11 0.12 0.13 0.12 0.09 0.06 0.05 0.06 0.07 0.07 0.08 0.10 0.12 0.13 0.13 0.15 0.14 0.14 0.17 0.18 0.36
0.08 0.07 0.10 0.08 0.06 0.07 0.06 0.05 0.07 0.11 0.09 0.09 0.12 0.14 0.15 0.18 0.17 0.13 0.13 0.14 0.14 0.14 0.16 0.16 0.14 0.10 0.09 0.08 0.07 0.06 0.07 0.10 0.11 0.11 0.12 0.14 0.16 0.16 0.18 0.19 0.20 0.20 0.21 0.28